[[{"header":{"parameterUnit":"m.s-1","parameterCategory":1,"la1":30.2991,"la2":30.254,"lo1":-89.0895,"lo2":-89.0444,"dy":0.0017,"dx":0.0017,"nx":28,"ny":28,"refTime":"2023-09-11T03:00:00:Z","depth":0,"parameterNumber":2,"parameterNumberName":"U-component_of_WINDS"},"data":[0,0,0,0,0,0,0,0,0,0,0,0,0,0,0,0,0,0,0,0,0,0,0,0,0,0,0,0,0,0,0,0,0,0,0,0,0,0,0,0,0,0,0,0,0,0,0,0,0,0,0,0,0,0,0,0,0,0,1.7787,1.7787,0,1.7831,1.7832,1.7832,1.7827,1.7826,1.7825,1.7825,1.7867,1.7869,1.7871,0,0,0,0,0,0,0,0,0,0,0,0,0,1.7692,1.7694,1.7787,1.7787,1.7788,1.7831,1.7832,1.7832,1.7827,1.7826,1.7825,1.7824,1.7867,1.7869,1.7871,0,0,0,0,0,0,0,0,0,0,0,0,0,1.7735,1.7695,1.7786,1.779,1.7791,1.7831,1.7832,1.7832,1.7827,1.7826,1.7825,1.7824,1.7866,1.7869,1.7871,1.7909,0,0,1.7879,1.7881,0,0,0,0,0,0,0,0,1.7732,1.7738,1.7789,1.779,1.7791,1.7822,1.7814,1.7858,1.7827,1.7813,1.7825,1.7823,1.7853,1.7857,1.7867,1.7911,1.7913,1.788,1.7881,1.7883,1.7883,0,0,0,0,0,0,0,1.7729,1.7736,1.7804,1.779,1.7791,1.7788,1.7793,1.7822,1.7838,1.7814,1.7814,1.782,1.7853,1.7865,1.7868,1.7914,1.788,1.7882,1.7884,1.7885,1.7988,1.7989,0,0,0,0,0,0,1.7726,1.7734,1.7803,1.7805,1.7759,1.7791,1.7796,1.7813,1.7838,1.7841,1.7821,1.7819,1.7861,1.7865,1.787,1.7914,1.7882,1.7885,1.7887,1.7987,1.7988,1.7989,0,0,0,0,0,0,1.7724,1.7732,1.7801,1.777,1.7778,1.7794,1.7813,1.7815,1.7826,1.7843,1.7845,1.783,1.786,1.7866,1.7899,1.7915,1.7886,1.7889,1.7985,1.7987,1.7988,1.8003,0,0,0,0,0,0,1.7721,1.7732,1.7747,1.777,1.778,1.7831,1.7814,1.7816,1.7831,1.783,1.7852,1.7854,1.786,1.7895,1.7902,1.7918,1.7891,1.7984,1.7986,1.7988,1.8001,1.8005,1.8008,0,0,0,0,0,1.7718,1.775,1.7748,1.7757,1.78,1.7832,1.7837,1.7843,1.7833,1.7847,1.7858,1.7854,1.7913,1.7898,1.7906,1.7923,1.7983,1.7985,1.7988,1.7999,1.8004,1.8008,0,0,0,0,0,0,1.7728,1.7753,1.7751,1.7792,1.781,1.7831,1.785,1.7848,1.7869,1.7867,1.7873,1.7878,1.791,1.7921,1.7904,1.796,1.7946,1.795,1.7952,1.7957,1.796,1.7956,1.7893,0,0,0,0,0,1.7735,1.776,1.778,1.7813,1.7822,1.7835,1.7849,1.7852,1.787,1.7878,1.789,1.7907,1.7929,1.7944,1.7965,1.8003,1.8006,1.8018,1.8022,1.8025,1.8028,1.8046,1.8051,1.7997,1.7997,1.7997,0,0,1.7749,1.7766,1.7781,1.7815,1.783,1.7853,1.7841,1.7867,1.7884,1.7881,1.7913,1.7923,1.7942,1.7977,1.7993,1.7986,1.8043,1.8028,1.803,1.8032,1.8049,1.8054,1.8058,1.7999,1.7999,1.7998,0,0,1.7787,1.7804,1.7832,1.7846,1.7868,1.7876,1.7883,1.7904,1.791,1.7942,1.7939,1.7959,1.7998,1.8011,1.8023,1.8064,1.806,1.8071,1.8089,1.8106,1.811,1.8114,1.8126,1.8131,1.8074,1.8074,1.8074,0,1.7802,1.7839,1.7846,1.7873,1.7886,1.7885,1.7912,1.7926,1.7953,1.7962,1.7955,1.8001,1.8015,1.8051,1.8061,1.8071,1.8077,1.8068,1.8109,1.8113,1.8116,1.8128,1.8133,1.8075,1.8075,1.8075,1.8075,0,1.7855,1.7881,1.7901,1.7927,1.7944,1.797,1.798,1.7995,1.7996,1.8004,1.8035,1.8051,1.8074,1.8083,1.8085,1.8119,1.8114,1.8108,1.8094,1.8122,1.8133,1.8138,1.8076,1.8076,1.8076,1.8075,0,0,1.7901,1.793,1.7937,1.7948,1.7971,1.799,1.8016,1.8039,1.8051,1.807,1.809,1.8122,1.8116,1.8129,1.8132,1.8147,1.8176,1.8139,1.8139,1.8143,1.8212,1.8215,1.822,1.8174,1.8175,1.8176,1.8209,0,1.794,1.7986,1.7992,1.8032,1.8054,1.8052,1.8074,1.809,1.8098,1.8116,1.8124,1.8146,1.8137,1.8145,1.816,1.8169,1.8189,1.8167,1.819,1.8191,1.8184,1.8227,1.8231,1.8262,1.8214,1.8215,1.8215,0,1.7991,1.8011,1.8053,1.8071,1.8081,1.8101,1.8121,1.814,1.8157,1.8161,1.8175,1.8176,1.82,1.8186,1.8218,1.8203,1.8212,1.8218,1.8219,1.822,1.8204,1.8227,1.8272,1.8276,1.8223,1.8222,1.8222,0,1.8017,1.8055,1.8084,1.8094,1.8117,1.813,1.814,1.8156,1.8168,1.8186,1.8194,1.8214,1.8225,1.824,1.8245,1.8235,1.8276,1.8263,1.8279,1.8279,1.8287,1.8286,1.8332,1.8296,1.8296,1.8296,1.8296,0,1.8059,1.8084,1.8096,1.8114,1.8142,1.8148,1.8174,1.8183,1.8197,1.8216,1.8215,1.8232,1.8239,1.8257,1.8261,1.8285,1.8291,1.8294,1.8294,1.8293,1.8292,1.8298,1.8295,1.8297,1.8297,1.8297,1.8297,0,1.8092,1.8102,1.8133,1.8152,1.8157,1.8176,1.8191,1.8207,1.8215,1.8238,1.8243,1.8254,1.8275,1.8281,1.8306,1.8309,1.8337,1.8337,1.8332,1.8331,1.8346,1.8344,1.8397,1.8403,1.8364,1.8365,1.8365,0,1.8118,1.8137,1.8157,1.817,1.818,1.82,1.8213,1.8219,1.8232,1.8252,1.8265,1.8286,1.8302,1.8335,1.8344,1.8362,1.8361,1.8378,1.8364,1.8361,1.8359,1.8357,1.8358,1.8381,1.8381,1.8381,1.8382,0,1.816,1.8163,1.8183,1.8203,1.8218,1.8234,1.825,1.826,1.8268,1.8282,1.8303,1.8316,1.8341,1.8361,1.8379,1.8388,1.8385,1.8386,1.8391,1.8389,1.8384,1.8385,1.8337,1.8385,1.8385,1.8384,1.8384,1.8384,1.8189,1.8205,1.8221,1.8242,1.8254,1.8268,1.8284,1.8293,1.8311,1.8332,1.8334,1.8356,1.837,1.8395,1.8404,1.842,1.8415,1.8422,1.8423,1.8424,1.8425,1.8383,1.8424,1.8424,1.8424,1.8424,1.8424,0,1.823,1.824,1.8259,1.828,1.8296,1.8293,1.831,1.8323,1.8342,1.8356,1.8372,1.8395,1.8413,1.8424,1.8442,1.8453,1.8452,1.8457,1.8455,1.8457,1.8429,1.8423,1.8457,1.8457,1.8457,1.8457,1.8457,1.8457,1.8253,1.8279,1.8284,1.8316,1.8325,1.8347,1.8357,1.8369,1.8379,1.8405,1.8421,1.8428,1.8439,1.8458,1.8474,1.8477,1.8482,1.8488,1.8489,1.8463,1.8459,1.8456,1.845,1.8489,1.8489,1.8515,1.8516,1.8516]},{"header":{"parameterUnit":"m.s-1","parameterCategory":1,"la1":30.2991,"la2":30.254,"lo1":-89.0895,"lo2":-89.0444,"dy":0.0017,"dx":0.0017,"nx":28,"ny":28,"refTime":"2023-09-11T03:00:00:Z","depth":0,"parameterNumber":3,"parameterNumberName":"V-component_of_WINDS"},"data":[0,0,0,0,0,0,0,0,0,0,0,0,0,0,0,0,0,0,0,0,0,0,0,0,0,0,0,0,0,0,0,0,0,0,0,0,0,0,0,0,0,0,0,0,0,0,0,0,0,0,0,0,0,0,0,0,0,0,3.3078,3.3078,0,3.308,3.308,3.308,3.3024,3.3022,3.3021,3.3019,3.302,3.3022,3.3023,0,0,0,0,0,0,0,0,0,0,0,0,0,3.3023,3.3024,3.3078,3.3078,3.3078,3.308,3.308,3.308,3.3024,3.3022,3.302,3.3019,3.302,3.3021,3.3023,0,0,0,0,0,0,0,0,0,0,0,0,0,3.3038,3.3024,3.3078,3.305,3.3048,3.308,3.308,3.308,3.3024,3.3022,3.302,3.3018,3.3019,3.3021,3.3023,3.3081,0,0,3.303,3.3031,0,0,0,0,0,0,0,0,3.3037,3.304,3.3054,3.3052,3.305,3.3049,3.3061,3.308,3.3025,3.3033,3.3019,3.3017,3.3032,3.3033,3.3038,3.3081,3.3081,3.303,3.3031,3.3032,3.3033,0,0,0,0,0,0,0,3.3036,3.304,3.3078,3.3055,3.3052,3.3037,3.3037,3.3064,3.3045,3.3032,3.3028,3.3029,3.303,3.3036,3.3037,3.3081,3.303,3.3032,3.3033,3.3034,3.3169,3.3171,0,0,0,0,0,0,3.3039,3.3039,3.3078,3.3078,3.3038,3.304,3.3039,3.3052,3.3045,3.3041,3.3031,3.3027,3.3033,3.3035,3.3037,3.3102,3.3032,3.3034,3.3035,3.3166,3.3169,3.3172,0,0,0,0,0,0,3.3038,3.3043,3.3078,3.3058,3.3061,3.3043,3.3057,3.3053,3.3059,3.3044,3.304,3.3041,3.3032,3.3034,3.307,3.3101,3.3035,3.3037,3.3164,3.3167,3.3171,3.3233,0,0,0,0,0,0,3.3037,3.3043,3.3066,3.3059,3.3062,3.3112,3.3059,3.3054,3.3063,3.3057,3.3052,3.3049,3.303,3.3067,3.3072,3.3103,3.3039,3.3161,3.3165,3.3169,3.3228,3.3239,3.3247,0,0,0,0,0,3.3035,3.3084,3.3067,3.3072,3.309,3.3114,3.3116,3.3094,3.3066,3.3087,3.3077,3.3049,3.3097,3.3071,3.3076,3.3108,3.3159,3.3164,3.3169,3.3224,3.3237,3.3247,0,0,0,0,0,0,3.3096,3.3083,3.3064,3.3112,3.3115,3.3105,3.3132,3.3108,3.3119,3.3113,3.3084,3.3083,3.3123,3.312,3.3091,3.3162,3.3123,3.3129,3.3163,3.3175,3.3184,3.3183,3.3041,0,0,0,0,0,3.3115,3.3136,3.3123,3.3167,3.3169,3.315,3.316,3.3142,3.3143,3.3144,3.3137,3.3138,3.3153,3.3164,3.3178,3.3228,3.3225,3.3252,3.3262,3.327,3.3275,3.3298,3.3309,3.3189,3.3189,3.3189,0,0,3.3154,3.315,3.3165,3.3179,3.3179,3.3199,3.3151,3.3177,3.3191,3.3148,3.318,3.3175,3.3175,3.3217,3.3236,3.3216,3.3308,3.3276,3.3283,3.3284,3.3305,3.3316,3.3326,3.3192,3.3192,3.3191,0,0,3.3236,3.3236,3.3271,3.3271,3.3271,3.3258,3.3267,3.326,3.3254,3.3287,3.3253,3.327,3.3298,3.3298,3.3302,3.3382,3.3355,3.3387,3.3436,3.3459,3.3468,3.3476,3.3502,3.3512,3.3393,3.3393,3.3393,0,3.3285,3.3316,3.3292,3.3318,3.3324,3.3285,3.3319,3.3321,3.3325,3.333,3.3307,3.3339,3.3337,3.3377,3.3396,3.3402,3.3408,3.3387,3.3469,3.3477,3.3484,3.3508,3.3518,3.3397,3.3396,3.3396,3.3395,0,3.3375,3.3396,3.3424,3.3428,3.3438,3.3468,3.3447,3.3459,3.344,3.3429,3.3461,3.3456,3.3467,3.3476,3.3458,3.3513,3.35,3.3474,3.3433,3.35,3.3522,3.3531,3.3402,3.3401,3.3399,3.3399,0,0,3.3495,3.3484,3.3495,3.3495,3.3491,3.3507,3.3534,3.3544,3.3554,3.3558,3.3578,3.3602,3.3577,3.3581,3.3563,3.3584,3.3643,3.3554,3.3554,3.3569,3.37,3.3718,3.373,3.3626,3.3628,3.363,3.3699,0,3.3573,3.3619,3.3597,3.3645,3.3663,3.3625,3.3649,3.3648,3.3638,3.3651,3.364,3.3656,3.3623,3.3625,3.3644,3.3632,3.3669,3.3627,3.3643,3.3644,3.3642,3.3742,3.3761,3.3827,3.3708,3.371,3.3711,0,3.3669,3.3676,3.3726,3.3716,3.3722,3.3744,3.3749,3.3763,3.3761,3.3752,3.3756,3.3733,3.3757,3.3718,3.375,3.3722,3.3727,3.3723,3.3725,3.3723,3.368,3.3741,3.3848,3.3857,3.3725,3.3724,3.3723,0,3.3749,3.3771,3.3802,3.3804,3.3794,3.3809,3.3806,3.3801,3.3808,3.3813,3.3816,3.3824,3.3828,3.3835,3.3813,3.3787,3.3847,3.3807,3.3839,3.3839,3.3851,3.3851,3.3959,3.3859,3.3859,3.3859,3.3859,0,3.3836,3.3867,3.3837,3.3857,3.3889,3.3863,3.3896,3.3889,3.3885,3.3901,3.387,3.3885,3.3857,3.387,3.3853,3.3881,3.3883,3.3875,3.387,3.3877,3.3878,3.3879,3.3873,3.3861,3.3861,3.386,3.386,0,3.393,3.3912,3.3943,3.393,3.3928,3.3952,3.3941,3.3957,3.3945,3.3965,3.3968,3.3948,3.3961,3.3941,3.3952,3.394,3.3978,3.3967,3.3978,3.3974,3.4005,3.4002,3.4116,3.4129,3.4024,3.4025,3.4026,0,3.3986,3.4009,3.3998,3.4006,3.4004,3.4018,3.4024,3.3999,3.4006,3.4004,3.402,3.403,3.4036,3.4058,3.4044,3.4052,3.4039,3.4079,3.404,3.4045,3.4036,3.4034,3.4035,3.4086,3.4087,3.4088,3.4089,0,3.4086,3.4075,3.4085,3.4091,3.4098,3.4102,3.4103,3.4112,3.4085,3.4094,3.4106,3.4111,3.4121,3.4131,3.4134,3.413,3.4104,3.4102,3.4109,3.4115,3.4119,3.4115,3.3997,3.4099,3.4098,3.4097,3.4097,3.4096,3.4161,3.4178,3.4172,3.4183,3.4181,3.4183,3.4196,3.4185,3.4195,3.42,3.4185,3.42,3.4195,3.4197,3.4195,3.4206,3.4188,3.4199,3.4202,3.4204,3.4208,3.412,3.4207,3.4206,3.4206,3.4206,3.4206,0,3.4257,3.4251,3.4262,3.4263,3.4271,3.4247,3.4247,3.4255,3.4268,3.4266,3.4272,3.4285,3.4294,3.428,3.4286,3.4297,3.4285,3.4299,3.4297,3.4296,3.4225,3.4217,3.4308,3.4308,3.4308,3.4308,3.4308,3.4308,3.4308,3.4335,3.4323,3.4348,3.4341,3.4355,3.4357,3.4357,3.4354,3.437,3.4376,3.4367,3.436,3.4364,3.437,3.4366,3.4369,3.4386,3.4377,3.4311,3.4301,3.4291,3.4283,3.4388,3.4388,3.4447,3.4447,3.4448]}]]